Погода в Джермуке

Армения     39°50′25″N   45°40′13″E
темп.,
°C
ветер,
м/с
пор.,
м/с
влажн.,
%
обл.,
%
осадки,
мм/ч
давл.,
гПа
погр.,
м
15 мая, сб
сб1501:00+6всв33714 0.0 102024
04:00+5всв33640 0.0 102021
07:00+6всв33700 0.0 102034
10:00+13ююв22470 0.0 1017942
13:00+15ююв334249 0.0 10162144
16:00+13всв125897 0.4 10171374
19:00+12юв237155 0.8 1016104
22:00+7всв3378100 1.2 101924
16 мая, вс
вс1601:00+6всв337583 0.1 101828
04:00+6всв33715 0.1 101722
07:00+8всв22662 0.0 101736
10:00+13ю32500 0.0 1015769
13:00+15юз33454 0.0 10141812
16:00+16юз43404 0.2 10121930
19:00+13ююв34658 0.1 1013105
22:00+8всв226823 0.2 101618
17 мая, пн
пн1701:00+8всв2260100 0.0 101515
04:00+8всв3259100 0.0 101517
07:00+10всв32620 0.0 101527
10:00+15юз37432 0.0 10131821
13:00+17юз673497 0.0 10132412
16:00+17ю493494 0.0 10112447
19:00+12всв2263100 0.3 101254
22:00+10вюв225296 0.4 101415
18 мая, вт
вт1801:00+9в435436 0.1 101228
04:00+8в3360100 0.3 101124
07:00+9всв1166100 0.1 101225
10:00+13юз36441 0.1 10111822
13:00+15зюз674047 0.1 10112863
16:00+15з67363 0.1 10112306
19:00+12зсз345516 0.0 1012125
22:00+8св44565 0.1 101740
19 мая, ср
ср1901:00+7св33550 0.0 101721
04:00+6св22580 0.0 101716
07:00+8св22640 0.0 101829
10:00+13зюз33430 0.0 10171182
13:00+15зюз33371 0.0 10161452
16:00+16зюз32391 0.0 10151424
19:00+14юз12540 0.0 101626
22:00+8всв32710 0.0 101920